Location: La Pernelle
(49.6188°N, 1.2999°W)
Time: 10:00:08
(UTC+00:00)

Cosmos 2061 Rocket - Pass Details

Date: 12 June 2021
Orbit: 965 x 1013 km, 82.9° (Epoch: 01 August)

Event Time Altitude Azimuth Distance (km) Brightness Sun altitude
Rises 22:48:20 0° 348° (NNW) 3,761 8.9 -15.2°
Reaches altitude 10° 22:50:53 10° 346° (NNW) 2,807 7.8 -15.3°
Maximum altitude 22:57:16 65° 266° (W) 1,112 4.3 -15.6°
Enters shadow 23:01:51 20° 190° (S) 2,159 5.3 -15.8°
